Terminal Aerodrome Forecast
Issued by NWS Cleveland, OH

Home | Current Version | Previous Version | Graphics & Text | Print | Product List | Glossary On
Versions: 1 2 3 4 5 6 7 8 9 10 11 12 13 14 15 16 17 18
157
FTUS41 KCLE 251720
TAFYNG
TAF
KYNG 251720Z 2518/2618 22010G15KT P6SM SCT250
     FM251900 26010G15KT P6SM BKN070
     FM260200 17004KT P6SM OVC100
     FM260800 19006KT P6SM OVC035
     FM261300 21007KT 4SM -TSRA BR OVC025CB
     FM261400 21008KT P6SM OVC035
     FM261700 22008KT P6SM OVC250=

USA.gov is the U.S. government's official web portal to all federal, state and local government web resources and services.